This is the latest recevied weather packets stored in our database for station/object M0JUI-1. If no packets are shown the sender has not sent any weather packets the latest 10 day(s).
| Time | Temp. | Humidity | Pressure | Rain* | Wind** | Luminosity | Snow |
|---|---|---|---|---|---|---|---|
| 1788096932 | 19.44° C | 99% | 1006.4 hPa | 0 mm | - | 115 W/m² | - |
| 1788096632 | 19.44° C | 99% | 1006.2 hPa | 0 mm | - | 200 W/m² | - |
| 1788096332 | 20° C | 99% | 1006.2 hPa | 0 mm | - | 248 W/m² | - |
| 1788096032 | 20.56° C | 99% | 1006.2 hPa | 0 mm | - | 235 W/m² | - |
| 1788095721 | 21.11° C | 99% | 1006.2 hPa | 0 mm | - | 303 W/m² | - |
| 1788095420 | 20.56° C | 99% | 1006.3 hPa | 0 mm | - | 550 W/m² | - |
| 1788095108 | 20° C | 99% | 1006.4 hPa | 0 mm | - | 458 W/m² | - |
| 1788094808 | 18.89° C | 99% | 1006.6 hPa | 0 mm | - | 403 W/m² | - |
| 1788094508 | 18.89° C | 99% | 1006.8 hPa | 0 mm | - | 432 W/m² | - |
| 1788094208 | 18.33° C | 99% | 1006.9 hPa | 0 mm | - | 440 W/m² | - |
| 1788093896 | 18.33° C | 99% | 1006.9 hPa | 0 mm | - | 347 W/m² | - |
| 1788093596 | 18.33° C | 99% | 1006.9 hPa | 0 mm | - | 258 W/m² | - |
| 1788093297 | 17.78° C | 99% | 1007.1 hPa | 0 mm | - | 325 W/m² | - |
| 1788092996 | 17.78° C | 99% | 1007.1 hPa | 0 mm | - | 376 W/m² | - |
| 1788092696 | 17.78° C | 1% | 1007.2 hPa | 0 mm | - | 323 W/m² | - |
| 1788092397 | 17.78° C | 99% | 1007.2 hPa | 0 mm | - | 223 W/m² | - |
| 1788092096 | 17.78° C | 99% | 1007.3 hPa | 0 mm | - | 86 W/m² | - |
| 1788091796 | 17.22° C | 99% | 1007.4 hPa | 0 mm | - | 198 W/m² | - |
| 1788091496 | 17.22° C | 99% | 1007.1 hPa | 0 mm | - | 239 W/m² | - |
| 1788091196 | 17.78° C | 99% | 1007.1 hPa | 0 mm | - | 129 W/m² | - |
| 1788090897 | 17.78° C | 99% | 1007.3 hPa | 0 mm | - | 124 W/m² | - |
| 1788090596 | 17.78° C | 99% | 1007.3 hPa | 0 mm | - | 218 W/m² | - |
| 1788090296 | 17.78° C | 99% | 1007.2 hPa | 0 mm | - | 263 W/m² | - |
| 1788089996 | 17.78° C | 99% | 1007.3 hPa | 0 mm | - | 203 W/m² | - |
| 1788089696 | 17.78° C | 99% | 1007.3 hPa | 0 mm | - | 150 W/m² | - |
* Rain latest hour (hover to see other rain measurements)
** Current wind speed in m/s (hover to see current wind gust speed)